This demonstration page uses our WeatherBlox Daily Observations layout. Learn more.

Left ArrowRight Arrow

Hourly Observations for October 24, 2021

Temp ( °F °C ) Dew Point ( °F °C ) Humidity (%) Winds ( mph kmh ) Pressure ( in mb ) Visibility ( mi km ) Precip ( " mm )
12:53 am 00:53 Clear 66 18.9 57 13.9 73 73 ESE 5 7 29.65 1004 10 16 N/A
1:53 am 01:53 Clear 62 16.7 56 13.3 80 80 SSW 6 9 29.67 1005 10 16 N/A
2:53 am 02:53 Clear 58 14.4 54 12.2 87 87 SSW 8 13 29.68 1005 10 16 N/A
3:53 am 03:53 Clear 58 14.4 53 11.7 84 84 NW 3 6 29.68 1005 10 16 N/A
4:53 am 04:53 Clear 58 14.4 44 6.7 60 60 N N/A 29.68 1005 10 16 N/A
5:53 am 05:53 Clear 57 13.9 38 3.3 49 49 SW 3 6 29.70 1006 10 16 N/A
6:53 am 06:53 Clear 61 16.1 36 2.2 39 39 NNW 5 7 29.73 1007 10 16 N/A
7:53 am 07:53 Clear 54 12.2 40 4.4 59 59 ESE 5 7 29.76 1008 10 16 N/A
8:53 am 08:53 Sunny 61 16.1 41 5 48 48 SSW 5 7 29.78 1008 10 16 N/A
9:53 am 09:53 Sunny 71 21.7 35 1.7 27 27 W 8 13 29.80 1009 10 16 N/A
10:53 am 10:53 undefined 75 23.9 35 1.7 23 23 W 12 19 29.81 1010 10 16 N/A
11:53 am 11:53 Sunny 80 26.7 36 2.2 20 20 W 13 20 29.81 1010 10 16 N/A
12:53 pm 12:53 Sunny 82 27.8 36 2.2 19 19 NNW 7 11 29.79 1009 10 16 N/A
1:53 pm 13:53 Sunny 85 29.4 35 1.7 17 17 W 13 20 29.77 1008 10 16 N/A
2:53 pm 14:53 Sunny 86 30 33 0.6 15 15 VRB 6 9 29.75 1007 10 16 N/A
3:53 pm 15:53 Sunny 86 30 32 undefined 14 14 VRB 7 11 29.75 1008 10 16 N/A
4:53 pm 16:53 Sunny 87 30.6 33 0.6 14 14 W 7 11 29.75 1007 10 16 N/A
5:53 pm 17:53 Sunny 87 30.6 34 1.1 15 15 SE 5 7 29.75 1007 10 16 N/A
6:53 pm 18:53 Sunny 84 28.9 34 1.1 17 17 WSW 3 6 29.74 1007 10 16 N/A
7:53 pm 19:53 Clear 78 25.6 34 1.1 20 20 WSW 3 6 29.79 1009 10 16 N/A
8:53 pm 20:53 Clear 73 22.8 34 1.1 24 24 SW 6 9 29.82 1010 10 16 N/A
9:53 pm 21:53 Clear 70 21.1 34 1.1 27 27 WSW 9 15 29.83 1010 10 16 N/A
10:53 pm 22:53 Clear 66 18.9 34 1.1 30 30 W 9 15 29.84 1011 10 16 N/A
11:53 pm 23:53 Clear 65 18.3 34 1.1 32 32 NW 5 7 29.84 1011 10 16 N/A

Powered by AerisWeather